Location: Berg
(47.2344°N, 9.5296°E)
Time: 17:28:51
(UTC+00:00)

Cosmos 1553 Rocket - Pass Details

Date: 24 January 2021
Orbit: 941 x 1008 km, 82.9° (Epoch: 28 February)

Event Time Altitude Azimuth Distance (km) Brightness Sun altitude
Rises 17:38:03 0° 356° (N) 3,751 7.0 -14.5°
Reaches altitude 10° 17:40:49 10° 4° (N) 2,794 6.2 -15.0°
Maximum altitude 17:46:46 38° 72° (ENE) 1,484 4.5 -15.9°
Drops below altitude 10° 17:52:36 10° 139° (SE) 2,751 6.1 -16.9°
Sets 17:55:18 0° 147° (SSE) 3,686 6.8 -17.4°
